Flag for France Weather past 2 weeks in Douai, France

Now
61 °F

More clouds than sun.


Feels Like: 61 °F
Forecast: 53 / 66 °F
Wind: 9 mph from North

Location: Lille Airport

Current Time: Sep 1, 2015 at 2:50:06 PM

Latest Report: Sep 1, 2015 at 2:00 PM


Visibility: N/A

Pressure: 30.01 "Hg

Humidity: 83%

Dew point: 55 °F

Location of DouaiLocation

Historic Weather in Douai — Graph

°F

Douai temperature yesterday

Maximum temperature yesterday: 79 °F (at 12:30 PM)
Minimum temperature yesterday: 63 °F (at 9:30 PM)
Average temperature yesterday: 70 °F

Past Weeks' High & Low Weather Summary

 TemperatureHumidityPressure
High86 °F (Aug 30, 4:30 PM)100% (Aug 18, 5:00 AM)30.21 "Hg (Aug 18, 5:00 AM)
Low50 °F (Aug 29, 6:00 AM)32% (Aug 22, 1:00 PM)29.39 "Hg (Aug 24, 6:30 PM)
Average65 °F76%29.94 "Hg
* Reported Aug 17 1:00 PM — Sep 1 1:30 PM, Douai, Weather by CustomWeather, © 2015

Note: Actual official high and low records may vary slightly from our data, if they occured in-between our weather recording intervals... More about our weather records

Advertising

Douai weather history for previous 24 hours

 ConditionsComfort  
Time TempWeatherWind HumidityBarometerVisibility
1:30 PM
Tue, Sep 1
63 °FBroken clouds.12 mph88%30.01 "HgN/A
1:00 PM64 °FBroken clouds.12 mph73%29.98 "HgN/A
12:30 PM63 °FLight rain. Partly sunny.13 mph77%29.98 "HgN/A
12:00 PM63 °FPartly sunny.9 mph83%29.98 "HgN/A
11:30 AM63 °FPartly sunny.9 mph83%29.95 "HgN/A
11:00 AM63 °FBroken clouds.9 mph83%29.95 "HgN/A
10:30 AM63 °FBroken clouds.9 mph83%29.95 "HgN/A
10:00 AM63 °FMostly cloudy.9 mph83%29.92 "HgN/A
9:30 AM61 °FBroken clouds.8 mph88%29.92 "HgN/A
9:00 AM61 °FOvercast.10 mph88%29.92 "HgN/A
8:30 AM61 °FPartly sunny.6 mph94%29.92 "HgN/A
8:00 AM61 °FMostly cloudy.6 mph94%29.89 "HgN/A
7:30 AM61 °FMostly cloudy.7 mph94%29.89 "HgN/A
7:00 AM61 °FPassing clouds.7 mph94%29.89 "HgN/A
6:30 AM61 °FPartly cloudy.7 mph88%29.89 "HgN/A
5:30 AM61 °FMostly cloudy.8 mph94%29.89 "HgN/A
5:00 AM61 °FPassing clouds.7 mph94%29.89 "HgN/A
4:30 AM61 °FMostly cloudy.7 mph94%29.89 "HgN/A
4:00 AM61 °FMostly cloudy.5 mph94%29.89 "HgN/A
3:30 AM61 °FMostly cloudy.6 mph94%29.89 "HgN/A
3:00 AM61 °FMostly cloudy.6 mph94%29.89 "HgN/A
2:30 AM61 °FMostly cloudy.5 mph94%29.92 "HgN/A
2:00 AM61 °FMostly cloudy.7 mph94%29.89 "HgN/A
1:30 AM61 °FMostly cloudy.8 mph94%29.89 "HgN/A
1:00 AM61 °FMostly cloudy.8 mph94%29.89 "HgN/A
12:00 AM63 °FMostly cloudy.9 mph88%29.89 "HgN/A
11:30 PM
Mon, Aug 31
63 °FOvercast.8 mph88%29.89 "HgN/A
11:00 PM63 °FMostly cloudy.10 mph94%29.89 "Hg5 mi
10:30 PM63 °FLow clouds.10 mph94%29.89 "Hg6 mi
10:00 PM63 °FMostly cloudy.10 mph94%29.89 "HgN/A
9:30 PM63 °FFog.8 mph94%29.89 "Hg3 mi
9:00 PM64 °FLow clouds.10 mph88%29.86 "Hg6 mi
8:30 PM64 °FMostly cloudy.12 mph94%29.86 "HgN/A
8:00 PM64 °FMostly cloudy.13 mph94%29.86 "HgN/A
7:30 PM66 °FPartly sunny.14 mph94%29.83 "Hg5 mi
7:00 PM68 °FLight rain. Partly sunny.15 mph88%29.83 "HgN/A
6:30 PM70 °FBroken clouds.12 mph88%29.83 "HgN/A
6:00 PM70 °FMore clouds than sun.8 mph94%29.83 "HgN/A
5:30 PM70 °FMostly cloudy.7 mph88%29.83 "HgN/A
5:00 PM70 °FBroken clouds.7 mph88%29.83 "HgN/A
4:30 PM70 °FLight rain. Mostly cloudy.7 mph94%29.83 "HgN/A
4:00 PM70 °FRain. Fog.5 mph94%29.83 "Hg3 mi
3:30 PM70 °FLight rain. Partly sunny.3 mph94%29.83 "Hg4 mi
3:00 PM70 °FPartly sunny.3 mph94%29.80 "Hg4 mi
2:30 PM68 °FThunderstorms. Fog.6 mph94%29.83 "Hg1 mi
2:00 PM72 °FThunderstorms. Low clouds.21 mph83%29.83 "Hg2 mi
Weather by CustomWeather, © 2015

See weather overviewHow to use our weather pages